HELSINKI-MALMI current weather conditions

sailwx.info

Wind from 330 at 3 knots

Air temperature 1.0° C
Dewpoint -3.0° C

Last reported at 2015-Apr-18 21:20 UTC.
Time now 2015-Apr-18 23:32 UTC

Location: N 60°15' E 025°03'.
View on Google Maps.

See reports from other nearby stations

  
Tides and Currents Weather Stations Pressure Air Temp Water Temp Dewpoint Dewpoint Depression Visibility Wind Speed Wind Dir Waves Ship Positions
date/time (UTC)wind fromknots sea level pressurealtimeterstation pressurevisibilityair tempwater tempwave heightnotes
2015-Apr-18 22:20 300 2 -0.0
2015-Apr-18 21:50 320 2 1.0
2015-Apr-18 21:20 330 3 1.0
2015-Apr-18 20:50 330 3 2.0
2015-Apr-18 20:20 340 5 5.4 2.0
2015-Apr-18 19:50 350 3 5.4 4.0
2015-Apr-18 19:20 350 6 5.4 4.0
2015-Apr-18 18:50 350 5 5.4 4.0
2015-Apr-18 18:20 350 6 5.4 4.0
2015-Apr-18 17:50 350 4 5.4 4.0
2015-Apr-18 17:20 350 4 5.4 4.0
2015-Apr-18 16:50 350 6 5.4 4.0
2015-Apr-18 16:20 350 8 5.4 5.0
2015-Apr-18 15:50 340 8 5.4 5.0
2015-Apr-18 15:20 350 10 5.4 5.0
2015-Apr-18 14:50 340 9 5.4 5.0
2015-Apr-18 14:20 330 9 5.4 5.0
2015-Apr-18 13:50 330 8 5.4 5.0
2015-Apr-18 13:20 320 8 5.4 5.0
2015-Apr-18 12:50 330 8 5.4 5.0
2015-Apr-18 12:20 340 9 5.4 6.0
2015-Apr-18 11:50 340 8 5.4 5.0
2015-Apr-18 11:20 330 11 5.4 5.0
2015-Apr-18 10:50 340 8 5.4 6.0
2015-Apr-18 10:20 340 9 5.4 5.0
2015-Apr-18 09:50 330 9 5.4 5.0
2015-Apr-18 09:20 340 9 5.4 5.0
2015-Apr-18 08:50 320 10 5.4 5.0
2015-Apr-18 08:20 320 8 5.4 5.0
2015-Apr-18 07:50 350 5 5.4 5.0
2015-Apr-18 07:20 340 7 5.4 5.0
2015-Apr-18 06:50 350 7 5.4 5.0
2015-Apr-18 06:20 360 5 5.4 5.0
2015-Apr-18 05:50 350 6 4.0
2015-Apr-18 05:20 340 4 4.0
2015-Apr-18 04:50 320 2 3.0
2015-Apr-18 04:20 3.0
2015-Apr-18 03:50 350 2 3.0
2015-Apr-18 03:20 350 2 3.0
2015-Apr-18 02:50 350 2 3.0
2015-Apr-18 02:20 360 2 3.0
2015-Apr-18 01:50 350 3 3.0
2015-Apr-18 01:20 320 3 2.0
2015-Apr-18 00:50 310 4 3.0
2015-Apr-18 00:20 310 2 2.0
2015-Apr-17 23:50 310 3 3.0
2015-Apr-17 23:20 310 2 2.0
2015-Apr-17 22:50 310 2 2.0
2015-Apr-17 22:20 310 3 2.0
2015-Apr-17 21:50 320 4 3.0
2015-Apr-17 21:20 330 6 4.0
2015-Apr-17 20:50 340 6 5.0
2015-Apr-17 20:20 340 6 5.0
2015-Apr-17 19:50 350 6 5.0
2015-Apr-17 19:20 350 6 5.0
2015-Apr-17 18:50 350 7 5.0
2015-Apr-17 18:20 330 7 4.0
2015-Apr-17 17:50 360 6 6.0
2015-Apr-17 17:20 360 5 5.4 7.0
2015-Apr-17 16:50 360 6 5.4 7.0
2015-Apr-17 16:20 030 6 5.4 7.0 Light rain showers.
2015-Apr-17 15:50 350 6 5.4 7.0
2015-Apr-17 15:20 010 7 5.4 7.0
2015-Apr-17 14:50 5.4 6.0
2015-Apr-17 14:20 360 4 5.4 5.0
2015-Apr-17 13:50 5.4 7.0 Rain showers.
2015-Apr-17 13:20 5.4 6.0 Showers in the vicinity.
2015-Apr-17 12:50 060 5 5.4 4.0 Light rain showers.
2015-Apr-17 12:20 5.4 5.0 Showers in the vicinity.
2015-Apr-17 11:50 040 8 5.4 5.0 Light rain showers.
2015-Apr-17 11:20 5.4 6.0
2015-Apr-17 10:50 340 9 gusting 20 5.4 6.0 Light rain showers.
2015-Apr-17 10:20 5.4 6.0 Light rain showers.
2015-Apr-17 09:50 5.4 5.0
2015-Apr-17 09:20 360 9 5.4 4.0
2015-Apr-17 08:50 360 8 5.4 4.0
2015-Apr-17 08:20 350 7 gusting 20 5.4 4.0
2015-Apr-17 07:50 360 7 5.4 4.0
2015-Apr-17 07:20 5.4 4.0
2015-Apr-17 06:50 360 8 5.4 3.0
2015-Apr-17 06:20 010 8 5.4 3.0
2015-Apr-17 05:50 360 7 5.4 2.0
2015-Apr-17 05:20 360 6 4.9 2.0 Light rain showers.
2015-Apr-17 04:50 350 5 5.4 2.0
2015-Apr-17 04:20 350 5 5.4 2.0 Light drizzle.
2015-Apr-17 03:50 360 3 5.4 1.0
2015-Apr-17 03:20 360 3 5.4 1.0
2015-Apr-17 02:50 350 5 5.4 1.0
2015-Apr-17 02:20 330 5 4.9 1.0
2015-Apr-17 01:50 310 4 4.3 1.0 Light rain showers.
2015-Apr-17 01:20 330 2 5.4 1.0
2015-Apr-17 00:50 310 5 5.4 1.0
2015-Apr-17 00:20 320 6 5.4 1.0
2015-Apr-16 23:50 310 5 5.4 2.0 Light rain.
2015-Apr-16 23:20 290 5 5.4 2.0 Light rain.